Regional Weather Roundup
Issued by NWS

Current Version | Previous Version | Graphics & Text | Print | Product List | Glossary On
Versions: 1 2 3 4 5 6 7 8 9 10 11 12 13 14 15 16 17 18 19 20 21 22 23 24 25 26 27 28 29 30 31 32 33 34 35 36 37 38 39 40 41 42 43 44 45 46 47 48 49 50
000
ASHW40 PHFO 040010
RWRHI

WEATHER ROUNDUP FOR HAWAII
NATIONAL WEATHER SERVICE HONOLULU HI
200 PM HST TUE MAR 03 2015

THIS IS AN AUTOMATED REPORT THAT HAS NOT BEEN QUALITY CONTROLLED.

NOTE..."FAIR" INDICATES FEW OR NO CLOUDS BELOW 12,000 FEET WITH NO
SIGNIFICANT WEATHER AND/OR OBSTRUCTIONS TO VISIBILITY.

* - THESE SITES REPORT LIMITED FIELDS

HIZ001>004-040100-
KAUAI-NIIHAU-

CITY           SKY/WX    TMP DP  RH WIND       PRES   REMARKS
LIHUE APT      PTSUNNY   77  64  65 N18G25    30.04F
PORT ALLEN*      N/A     81 N/A N/A E18G24      N/A
POIPU*         NOT AVBL
PRINCEVILLE*     N/A     73 N/A N/A MISG        N/A
KOKOLE POINT*  NOT AVBL
MOLOAA DAIRY*  NOT AVBL
WAIMEA HTS*    NOT AVBL
PUU OPAE*      NOT AVBL
PUU LUA*       NOT AVBL
MAKAHA RIDGE*  NOT AVBL
$$

HIZ005>011-040100-
OAHU-

CITY           SKY/WX    TMP DP  RH WIND       PRES   REMARKS
HONOLULU       CLOUDY    83  66  56 NE14G22   29.97F
KALAELOA       MOSUNNY   82  65  56 E12G18    29.99F
KANEOHE MCB    PTSUNNY   79  69  71 NE17      29.99F
WHEELER FIELD  FAIR      77  65  68 N10G23    30.01S
BELLOWS*       NOT AVBL
KAHUKU*        NOT AVBL
WHEELER*       NOT AVBL
WAIANAE HARBOR NOT AVBL
DILLINGHAM*      N/A     79  70  73 MISG        N/A
KAHUKU TRN*      N/A     70  63  78 NE12G23     N/A
KAWAILOA*        N/A     70  66  88 NE12G18     N/A
KII*             N/A     77  70  78 NE17        N/A
MAKUA RANGE*     N/A     79  68  69 E17G30      N/A
OAHU FOREST NW NOT AVBL
SCHOFIELD BRK*   N/A     63  54  72 MISG        N/A
SCHOFIELD S*   NOT AVBL
WAIANAE VLY*   NOT AVBL
KUAOKALA*      NOT AVBL
HONOULIUULI*   NOT AVBL
MOKUOLOE IS*   NOT AVBL
PALEHUA*       NOT AVBL
WAIAWA PHB*    NOT AVBL
$$

HIZ012>013-040100-
MOLOKAI-

CITY           SKY/WX    TMP DP  RH WIND       PRES   REMARKS
MOLOKAI AIRPT  PTSUNNY   76  68  76 NE13G26   29.99F
KALAUPAPA      NOT AVBL
MAKAPULAPAI*   NOT AVBL
MOLOKAI 1*     NOT AVBL
PUU ALII*      NOT AVBL
$$

HIZ016-040100-
KAHOOLAWE-

CITY           SKY/WX    TMP DP  RH WIND       PRES   REMARKS
KAHOOLAWE*     NOT AVBL
HAKIOAWA*      NOT AVBL
HONOKANAIA*      N/A     85  67  54 VRB14G26  29.98F
KANELOA*         N/A     79  68  69 MISG      29.22F
KEALIALALO*    NOT AVBL
LUA MAKIKA*    NOT AVBL
$$

HIZ014>015-040100-
LANAI-

CITY           SKY/WX    TMP DP  RH WIND       PRES   REMARKS
LANAI CITY     FAIR      78  65  64 NE21G29   30.02F
LANAI 1*       NOT AVBL
$$

HIZ017>028-040100-
MAUI-

CITY           SKY/WX    TMP DP  RH WIND       PRES   REMARKS
KAHULUI        PTSUNNY   81  68  64 NE20      29.99F
KAPALUA-W MAUI PTSUNNY   77  68  73 N20G30    29.98F
HANA AIRPORT   CLOUDY    75  72  88 N6        30.02S
HANA*            N/A     77 N/A N/A N7G13       N/A
HALEAKALA SUMM   N/A     52  41  66 SE9         N/A
MAALAEA BAY*   NOT AVBL
HALEAKALA*     NOT AVBL
KAUPO GAP*     NOT AVBL
KULA 1*          N/A     58  53  82 NW5         N/A
$$

HIZ023>026-040100-
BIG ISLAND OF HAWAII COAST AND LOWER SLOPES-

CITY           SKY/WX    TMP DP  RH WIND       PRES   REMARKS
KAILUA KONA    PTSUNNY   83  66  56 W8        29.92F
HILO           CLOUDY    81  70  69 NE8       29.96F
HONOKAA*       NOT AVBL
KAWAIHAE MWT*    N/A     84 N/A N/A W6          N/A
KAWAIHAE*      NOT AVBL
SOUTH POINT*   NOT AVBL
UPOLU AIRPORT*   N/A    N/A N/A N/A NE20G25     N/A
KAMUELA*       PTCLDY    75  63  64 NE21      30.03F
HAKALAU*         N/A     58  53  85 E7G13       N/A
KALOKO-HONOKO* NOT AVBL
PALI 2*          N/A     79  55  44 E9G17       N/A
KEALAKOMO*       N/A     90  64  43 N12G26      N/A  HX  91
KAUPULEHU*     NOT AVBL
KAPAPALA*        N/A     79  65  62 SE2G12      N/A
LOWER KAHUKU*  NOT AVBL
PUHE CS*       NOT AVBL
PUHO CS*       NOT AVBL
PTA KEAMUKU*     N/A     73  59  60 NE1G12      N/A
WAIKOLOA*      NOT AVBL
$$

HIZ027>028-040100-
BIG ISLAND OF HAWAII INTERIOR AND SUMMMITS-

CITY           SKY/WX    TMP DP  RH WIND       PRES   REMARKS
BRADSHAW FIELD LGT RAIN  59  55  85 SW8G14    30.25F
MK VISITOR CEN NOT AVBL
MAUNA KEA*       N/A     34  27  75 W12         N/A  WCI  25
MAUNA LOA*       N/A     41  39  93 MISG        N/A
MAUNA LOA 1*   NOT AVBL
PTA KIPUKA*      N/A     64  55  72 NW8G17      N/A
PTA RANGE 17*    N/A     68  55  64 W10G18      N/A
PTA WEST*        N/A     70  57  64 NW12G21     N/A
NENE CABIN*    NOT AVBL
AHUMOA*        NOT AVBL
PTA PORTABLE*  NOT AVBL
PUU MALI*      NOT AVBL
$$

HIC003-040100-
NORTHWEST ISLANDS-

CITY           SKY/WX    TMP DP  RH WIND       PRES   REMARKS
MIDWAY ISLAND  HVY RAIN  66  55  68 NE16G23   30.42F
MIDWAY NOS*    NOT AVBL
FRENCH FRIGATE NOT AVBL
$$

PHZ110>124-180-040100-
BUOY REPORTS

STATION/POSITION TIME  TEMP    WIND        PRES    WAVE   SWELL
                       AIR SEA DIR/SP/G            HT/PER HT/DIR
                 (UTC) (F)     (DEG/KT/KT) (MB)    (FT/S) (FT/D)
BUOY 51001       NOT AVBL
BUOY 51101       0000   70 71   30/ 19/ 23 1019.0F   8/ 8   5/ 20
BUOY 51100       0000   73 74   20/  8     1016.8F
BUOY 51003       2300   77 78   60/ 16/ 19 1015.7F   8/12   5
BUOY 51004       2247   77 78   90/ 12/ 21 1013.4F  10/ 9  10/ 80
BARBERS PT BUOY  NOT AVBL
WAIMEA BAY BUOY  0000      77                N/A     6/12   3/320
KAILUA BAY BUOY  0000      77                N/A     7/12   3/350
LANAI BUOY       0000      76                N/A     4/12   3/300
BARBERS PT 2     0000      78                N/A     4/12   2/320
PAUWELA MAUI     0000      76                N/A     8/13
HILO             0000      78                N/A     8/ 9   5/350
KANEOHE BAY BUOY 0000      77                N/A     7/13   3/340
HANALEI KAUAI    NOT AVBL
KAHULUI HARBOR   0000   76 77   20/ 13/ 17 1015.4F
HONOLULU HARBOR  0000   80 77   60/  6/ 13 1014.8F
KILO NALU        NOT AVBL
HILO HARBOR      0000   76 78   10/  8/ 13 1014.5S
MOKUOLOE         0000   75 77   30/ 14/ 17 1016.2F
NAWILIWILI       0000   74 77   30/ 14/ 18 1017.0F
WHOTS BUOY       NOT AVBL
BUOY 51028       NOT AVBL
$$

......................KEY........................................
  SKY/WX - SKY CONDITIONS/PRESENT WEATHER
  TMP    - TEMPERATURE IN FAHRENHEIT
  DWPT   - DEWPOINT IN FAHRENHEIT
  RH     - RELATIVE HUMIDITY IN PERCENT
  WIND   - DIRECTION AND SPEED /MPH FOR ISLANDS...KTS FOR BUOYS/
  PRES   - MEAN SEA LEVEL PRESSURE IN INCHES OF HG
  VSB    - VISIBILITY IN MILES
  HX     - HEAT INDEX
  WCI    - WIND CHILL INDEX
  VRB    - VARIABLE WIND DIRECTION
  N/A    - NOT AVAILABLE



USA.gov is the U.S. government's official web portal to all federal, state and local government web resources and services.